Location: Karwodrza
(49.9217°N, 21.0454°E)
Time: 01:09:21
(UTC+01:00)

ISS - Pass Details

Date: 23 January 2019
Orbit: 403 x 411 km, 51.6° (Epoch: 19 February)

Event Time Altitude Azimuth Distance (km) Brightness Sun altitude
Rises 18:35:00 0° 222° (SW) 2,327 0.7 -22.2°
Reaches altitude 10° 18:37:11 10° 213° (SSW) 1,471 -0.6 -22.6°
Enters shadow 18:38:34 20° 197° (SSW) 999 -1.7 -22.8°
